| time (UTC) | temp F | wind direction | speed MPH | gust MPH | rain 1hr in | rain 24hr in | rain mn in | humidity % | barometer mb |
| 20260503025427 | 49 | 123 | 6.0 | 17.0 | 0.00 | 0.00 | 0.00 | 26 | 1012.7 |
| 20260503024427 | 49 | 112 | 9.0 | 15.0 | 0.00 | 0.00 | 0.00 | 26 | 1012.6 |
| 20260503023427 | 49 | 117 | 8.0 | 12.0 | 0.00 | 0.00 | 0.00 | 26 | 1012.5 |
| 20260503022427 | 49 | 122 | 5.0 | 11.0 | 0.00 | 0.00 | 0.00 | 27 | 1012.5 |
| 20260503021430 | 49 | 130 | 3.0 | 9.0 | 0.00 | 0.00 | 0.00 | 27 | 1012.5 |
| 20260503020427 | 49 | 146 | 4.0 | 9.0 | 0.00 | 0.00 | 0.00 | 26 | 1012.5 |
| 20260503015427 | 50 | 144 | 2.0 | 9.0 | 0.00 | 0.00 | 0.00 | 26 | 1012.5 |
| 20260503014427 | 50 | 125 | 2.0 | 7.0 | 0.00 | 0.00 | 0.00 | 25 | 1012.5 |
| 20260503013427 | 51 | 151 | 2.0 | 7.0 | 0.00 | 0.00 | 0.00 | 24 | 1012.5 |
| 20260503012427 | 51 | 154 | 2.0 | 6.0 | 0.00 | 0.00 | 0.00 | 24 | 1012.5 |
| 20260503011428 | 52 | 119 | 5.0 | 9.0 | 0.00 | 0.00 | 0.00 | 23 | 1012.6 |
| 20260503010427 | 53 | 141 | 3.0 | 11.0 | 0.00 | 0.00 | 0.00 | 20 | 1012.6 |
| 20260503005427 | 54 | 177 | 3.0 | 9.0 | 0.00 | 0.00 | 0.00 | 15 | 1012.6 |
| 20260503004427 | 54 | 181 | 3.0 | 7.0 | 0.00 | 0.00 | 0.00 | 15 | 1012.6 |
| 20260503003427 | 55 | 178 | 1.0 | 8.0 | 0.00 | 0.00 | 0.00 | 17 | 1012.6 |
| 20260503002427 | 55 | 0 | 0.0 | 6.0 | 0.00 | 0.00 | 0.00 | 16 | 1012.6 |
| 20260503001427 | 55 | 225 | 1.0 | 6.0 | 0.00 | 0.00 | 0.00 | 16 | 1012.6 |
| 20260503000427 | 56 | 163 | 1.0 | 10.0 | 0.00 | 0.00 | 0.00 | 15 | 1012.7 |
| 20260502235428 | 55 | 0 | 0.0 | 4.0 | 0.00 | 0.00 | 0.00 | 16 | 1012.6 |
| 20260502234427 | 54 | 0 | 0.0 | 10.0 | 0.00 | 0.00 | 0.00 | 16 | 1012.6 |
| 20260502233432 | 54 | 166 | 4.0 | 11.0 | 0.00 | 0.00 | 0.00 | 17 | 1012.6 |
| 20260502232427 | 55 | 192 | 3.0 | 9.0 | 0.00 | 0.00 | 0.00 | 12 | 1012.6 |
| 20260502231427 | 56 | 165 | 5.0 | 9.0 | 0.00 | 0.00 | 0.00 | 12 | 1012.6 |
| 20260502230715 | 56 | 152 | 2.0 | 9.0 | 0.00 | 0.00 | 0.00 | 13 | 1012.6 |
| 20260502230427 | 56 | 152 | 2.0 | 9.0 | 0.00 | 0.00 | 0.00 | 13 | 1012.6 |
| 20260502225428 | 56 | 123 | 3.0 | 9.0 | 0.00 | 0.00 | 0.00 | 13 | 1012.6 |
| 20260502224427 | 56 | 164 | 4.0 | 11.0 | 0.00 | 0.00 | 0.00 | 18 | 1012.7 |
| 20260502223429 | 56 | 264 | 3.0 | 10.0 | 0.00 | 0.00 | 0.00 | 17 | 1012.7 |
| 20260502222427 | 56 | 234 | 3.0 | 10.0 | 0.00 | 0.00 | 0.00 | 18 | 1012.8 |
| 20260502221427 | 56 | 176 | 3.0 | 10.0 | 0.00 | 0.00 | 0.00 | 19 | 1012.9 |
| 20260502220427 | 56 | 193 | 6.0 | 14.0 | 0.00 | 0.00 | 0.00 | 18 | 1012.9 |
| 20260502215427 | 57 | 159 | 2.0 | 6.0 | 0.00 | 0.00 | 0.00 | 18 | 1012.9 |
| 20260502214427 | 56 | 248 | 4.0 | 10.0 | 0.00 | 0.00 | 0.00 | 18 | 1013.0 |
| 20260502213427 | 57 | 213 | 4.0 | 11.0 | 0.00 | 0.00 | 0.00 | 21 | 1013.2 |
| 20260502212427 | 56 | 137 | 3.0 | 9.0 | 0.00 | 0.00 | 0.00 | 22 | 1013.2 |
| 20260502211428 | 57 | 154 | 5.0 | 9.0 | 0.00 | 0.00 | 0.00 | 21 | 1013.3 |
| 20260502210427 | 56 | 174 | 4.0 | 11.0 | 0.00 | 0.00 | 0.00 | 21 | 1013.5 |
| 20260502205427 | 57 | 226 | 4.0 | 12.0 | 0.00 | 0.00 | 0.00 | 22 | 1013.5 |
| 20260502204427 | 56 | 165 | 2.0 | 13.0 | 0.00 | 0.00 | 0.00 | 24 | 1013.6 |
| 20260502203427 | 55 | 179 | 3.0 | 11.0 | 0.00 | 0.00 | 0.00 | 28 | 1013.6 |
| 20260502202428 | 55 | 147 | 1.0 | 11.0 | 0.00 | 0.00 | 0.00 | 27 | 1013.8 |
| 20260502201427 | 54 | 105 | 2.0 | 11.0 | 0.00 | 0.00 | 0.00 | 29 | 1013.8 |
| 20260502200427 | 53 | 151 | 3.0 | 11.0 | 0.00 | 0.00 | 0.00 | 28 | 1013.8 |
| 20260502195427 | 53 | 159 | 2.0 | 11.0 | 0.00 | 0.00 | 0.00 | 30 | 1013.8 |
| 20260502194427 | 52 | 140 | 4.0 | 10.0 | 0.00 | 0.00 | 0.00 | 28 | 1013.7 |
| 20260502193427 | 52 | 142 | 3.0 | 9.0 | 0.00 | 0.00 | 0.00 | 33 | 1013.9 |
| 20260502192427 | 51 | 110 | 4.0 | 13.0 | 0.00 | 0.00 | 0.00 | 34 | 1013.9 |
| 20260502191427 | 52 | 116 | 5.0 | 10.0 | 0.00 | 0.00 | 0.00 | 35 | 1013.9 |
| 20260502190427 | 52 | 156 | 5.0 | 11.0 | 0.00 | 0.00 | 0.00 | 35 | 1014.0 |
| 20260502185427 | 52 | 160 | 2.0 | 16.0 | 0.00 | 0.00 | 0.00 | 35 | 1014.1 |
| 20260502184427 | 52 | 132 | 3.0 | 10.0 | 0.00 | 0.00 | 0.00 | 36 | 1014.1 |
| 20260502183427 | 50 | 112 | 3.0 | 13.0 | 0.00 | 0.00 | 0.00 | 39 | 1014.2 |
| 20260502182429 | 49 | 115 | 4.0 | 13.0 | 0.00 | 0.00 | 0.00 | 43 | 1014.2 |
| 20260502181427 | 49 | 111 | 5.0 | 12.0 | 0.00 | 0.00 | 0.00 | 43 | 1014.3 |
| 20260502180427 | 49 | 136 | 2.0 | 11.0 | 0.00 | 0.00 | 0.00 | 45 | 1014.3 |
| 20260502163427 | 44 | 111 | 10.0 | 16.0 | 0.00 | 0.00 | 0.00 | 56 | 1013.8 |
| 20260502162429 | 44 | 102 | 5.0 | 16.0 | 0.00 | 0.00 | 0.00 | 60 | 1013.7 |
| 20260502161427 | 43 | 100 | 9.0 | 15.0 | 0.00 | 0.00 | 0.00 | 60 | 1013.8 |
| 20260502160427 | 43 | 89 | 10.0 | 18.0 | 0.00 | 0.00 | 0.00 | 61 | 1013.7 |
| 20260502152226 | 41 | 99 | 12.0 | 24.0 | 0.00 | 0.00 | 0.00 | 65 | 1013.3 |
| 20260502151226 | 40 | 103 | 14.0 | 20.0 | 0.00 | 0.00 | 0.00 | 67 | 1013.1 |
| 20260502150228 | 40 | 97 | 12.0 | 21.0 | 0.00 | 0.00 | 0.00 | 67 | 1013.1 |
| 20260502130226 | 38 | 89 | 13.0 | 18.0 | 0.00 | 0.00 | 0.00 | 71 | 1012.2 |
| 20260502123225 | 37 | 81 | 8.0 | 17.0 | 0.00 | 0.00 | 0.00 | 72 | 1012.0 |
| 20260502122225 | 38 | 84 | 11.0 | 27.0 | 0.00 | 0.00 | 0.00 | 72 | 1011.8 |
| 20260502121226 | 38 | 80 | 10.0 | 20.0 | 0.00 | 0.00 | 0.00 | 71 | 1011.7 |
| 20260502120225 | 38 | 75 | 11.0 | 21.0 | 0.00 | 0.00 | 0.00 | 71 | 1011.7 |
| 20260502115226 | 38 | 90 | 12.0 | 25.0 | 0.00 | 0.00 | 0.00 | 71 | 1011.7 |
| 20260502114128 | 38 | 94 | 13.0 | 26.0 | 0.00 | 0.00 | 0.00 | 71 | 1011.9 |
| 20260502113128 | 38 | 92 | 11.0 | 21.0 | 0.00 | 0.00 | 0.00 | 71 | 1011.8 |
| 20260502112128 | 39 | 96 | 12.0 | 19.0 | 0.00 | 0.00 | 0.00 | 70 | 1012.0 |
| 20260502111128 | 39 | 89 | 8.0 | 26.0 | 0.00 | 0.00 | 0.00 | 70 | 1012.1 |
| 20260502110128 | 39 | 99 | 12.0 | 21.0 | 0.00 | 0.00 | 0.00 | 71 | 1011.9 |
| 20260502105128 | 39 | 75 | 9.0 | 22.0 | 0.00 | 0.00 | 0.00 | 70 | 1011.9 |
| 20260502104128 | 39 | 92 | 10.0 | 18.0 | 0.00 | 0.00 | 0.00 | 69 | 1012.0 |
| 20260502103128 | 39 | 90 | 10.0 | 21.0 | 0.00 | 0.00 | 0.00 | 68 | 1011.9 |
| 20260502102128 | 39 | 81 | 10.0 | 22.0 | 0.00 | 0.00 | 0.00 | 67 | 1011.9 |
| 20260502101128 | 40 | 85 | 8.0 | 20.0 | 0.00 | 0.00 | 0.00 | 63 | 1012.0 |
| 20260502100129 | 40 | 89 | 12.0 | 22.0 | 0.00 | 0.00 | 0.00 | 61 | 1011.8 |
| 20260502091132 | 42 | 82 | 12.0 | 21.0 | 0.00 | 0.00 | 0.00 | 32 | 1011.8 |
| 20260502090552 | 43 | 85 | 14.0 | 20.0 | 0.00 | 0.00 | 0.00 | 31 | 1011.8 |
| 20260502090133 | 43 | 85 | 14.0 | 20.0 | 0.00 | 0.00 | 0.00 | 31 | 1011.8 |
| 20260502071128 | 45 | 69 | 8.0 | 13.0 | 0.00 | 0.00 | 0.00 | 31 | 1012.1 |
| 20260502070128 | 45 | 67 | 6.0 | 12.0 | 0.00 | 0.00 | 0.00 | 30 | 1012.3 |
| 20260502065128 | 46 | 55 | 7.0 | 13.0 | 0.00 | 0.00 | 0.00 | 29 | 1012.3 |
| 20260502064128 | 46 | 53 | 7.0 | 12.0 | 0.00 | 0.00 | 0.00 | 30 | 1012.2 |
| 20260502063128 | 46 | 44 | 4.0 | 11.0 | 0.00 | 0.00 | 0.00 | 26 | 1012.3 |
| 20260502062128 | 47 | 54 | 6.0 | 12.0 | 0.00 | 0.00 | 0.00 | 20 | 1012.2 |
| 20260502061128 | 47 | 49 | 5.0 | 10.0 | 0.00 | 0.00 | 0.00 | 19 | 1012.1 |
| 20260502060128 | 47 | 39 | 4.0 | 9.0 | 0.00 | 0.00 | 0.00 | 17 | 1012.0 |
| 20260502055128 | 47 | 36 | 4.0 | 8.0 | 0.00 | 0.00 | 0.00 | 13 | 1012.0 |
| 20260502054556 | 48 | 354 | 2.0 | 6.0 | 0.00 | 0.00 | 0.00 | 11 | 1012.0 |
| 20260502054128 | 48 | 354 | 2.0 | 6.0 | 0.00 | 0.00 | 0.00 | 11 | 1012.0 |
| 20260502052722 | 48 | 333 | 4.0 | 8.0 | 0.00 | 0.00 | 0.00 | 13 | 1011.9 |
| 20260502051722 | 48 | 328 | 5.0 | 10.0 | 0.00 | 0.00 | 0.00 | 15 | 1011.9 |
| 20260502050721 | 48 | 324 | 5.0 | 9.0 | 0.00 | 0.00 | 0.00 | 16 | 1011.9 |
| 20260502045722 | 47 | 321 | 6.0 | 10.0 | 0.00 | 0.00 | 0.00 | 19 | 1011.8 |
| 20260502044721 | 47 | 317 | 7.0 | 10.0 | 0.00 | 0.00 | 0.00 | 23 | 1011.7 |
| 20260502043722 | 47 | 315 | 5.0 | 11.0 | 0.00 | 0.00 | 0.00 | 24 | 1011.7 |
| 20260502042725 | 47 | 313 | 7.0 | 10.0 | 0.00 | 0.00 | 0.00 | 29 | 1011.6 |
| 20260502041722 | 47 | 313 | 7.0 | 10.0 | 0.00 | 0.00 | 0.00 | 29 | 1011.6 |
| 20260502041206 | 47 | 307 | 9.0 | 12.0 | 0.00 | 0.00 | 0.00 | 27 | 1011.5 |
| 20260502040728 | 47 | 307 | 9.0 | 12.0 | 0.00 | 0.00 | 0.00 | 27 | 1011.5 |
| 20260502035722 | 46 | 311 | 10.0 | 13.0 | 0.00 | 0.00 | 0.00 | 27 | 1011.3 |
| 20260502034721 | 47 | 312 | 7.0 | 11.0 | 0.00 | 0.00 | 0.00 | 27 | 1011.2 |
| 20260502033723 | 47 | 306 | 7.0 | 15.0 | 0.00 | 0.00 | 0.00 | 26 | 1011.2 |
| 20260502032722 | 47 | 311 | 11.0 | 15.0 | 0.00 | 0.00 | 0.00 | 27 | 1010.9 |
| 20260502031721 | 47 | 307 | 8.0 | 17.0 | 0.00 | 0.00 | 0.00 | 27 | 1011.0 |
| 20260502030721 | 47 | 306 | 10.0 | 15.0 | 0.00 | 0.00 | 0.00 | 26 | 1010.7 |